Weather Roundup
Issued by NWS

Home | Current Version | Previous Version | Graphics & Text | Print | Product List | Glossary Off
Versions: 1 2 3 4 5 6 7 8 9 10 11 12 13 14 15 16 17 18 19 20 21 22 23 24 25 26 27 28 29 30 31 32 33 34 35 36 37 38 39 40 41 42 43 44 45 46 47 48 49 50

000
NZUS93 KARX 252259
HRRWXR

CURRENT HOURLY OBSERVATIONS ACROSS
MUCH OF THE UPPER MISSISSIPPI VALLEY
NATIONAL WEATHER SERVICE LA CROSSE WI
600 PM CDT MON JUL 25 2016


...SOUTHEAST MINNESOTA...


CITY           SKY/WX    TMP DP  RH WIND       PRES   REMARKS
ROCHESTER      SUNNY     82  65  56 N9        30.06F
ROCHESTER/MAYO FAIR      81  61  50 W10       30.05S
WINONA         SUNNY     82  59  44 NW7       30.02S
AUSTIN         SUNNY     81  64  57 N6        30.06F
ALBERT LEA     SUNNY     81  64  57 NW5       30.06F
DODGE CENTER   SUNNY     82  61  47 NW9       30.06F
PRESTON        SUNNY     80  61  53 N9        30.06S
OWATONNA       SUNNY     82  63  51 W6        30.06S
FARIBAULT      SUNNY     82  66  57 W7        30.05F
$$

...ELSEWHERE IN MINNESOTA...


CITY           SKY/WX    TMP DP  RH WIND       PRES   REMARKS
MINNEAPOLIS    MOSUNNY   86  62  44 NW9G17    30.02F
INTNL FALLS    SUNNY     81  58  45 NW9       29.94F
DULUTH         MOSUNNY   82  60  47 NW9       29.99F
RED WING       SUNNY     84  57  39 N6        30.00F
REDWOOD FALLS  MOSUNNY   86  64  47 W10       30.03F
MANKATO        SUNNY     82  63  51 NW6       30.05F
WORTHINGTON    SUNNY     83  65  54 VRB7      30.08F
FAIRMONT       SUNNY     84  64  51 NW6       30.05F
$$

...SOUTHWEST WISCONSIN...


CITY           SKY/WX    TMP DP  RH WIND       PRES   REMARKS
LA CROSSE      MOSUNNY   85  63  47 NW8       30.01S
PRAIRIE DU CHI MOSUNNY   82  58  45 N7        30.01S
BOSCOBEL       SUNNY     85  63  47 NW8       30.01S
LONE ROCK      NOT AVBL
PLATTEVILLE    MOSUNNY   81  66  60 N6        30.03S
FORT MC COY    MOSUNNY   82  62  50 NW8       30.02S
MAUSTON-NEW LI PTCLDY    82  64  55 NW8       30.00F
VIROQUA        FAIR      81  63  54 NW7       30.04F
WIS DELLS      NOT AVBL
$$

...ELSEWHERE IN WISCONSIN...


CITY           SKY/WX    TMP DP  RH WIND       PRES   REMARKS
MILWAUKEE      PTSUNNY   80  63  55 E6        29.98S
MADISON        MOSUNNY   84  63  49 NW8       29.99F
GREEN BAY      MOSUNNY   83  64  52 NW9       29.96F
EAU CLAIRE     NOT AVBL
BLACK RVR FLS  FAIR      84  57  39 NW7       30.01S
MEDFORD        SUNNY     79  60  52 NW8       30.03S
WAUSAU         SUNNY     82  56  40 NW13G21   29.99F
WIS RAPIDS     MOSUNNY   83  57  41 NW9       30.02S
MARSHFIELD     SUNNY     81  60  48 NW12      30.02S
RICE LAKE      SUNNY     81  61  50 W6        30.03F
$$

...NORTHEAST IOWA...


CITY           SKY/WX    TMP DP  RH WIND       PRES   REMARKS
WATERLOO       SUNNY     83  62  49 N12       30.01F
DUBUQUE        MOSUNNY   82  64  54 N9        30.03F
DECORAH        SUNNY     81  63  54 N7        30.03S
MASON CITY     SUNNY     83  64  52 N9        30.07F
CHARLES CITY   SUNNY     82  63  51 N9        30.05F
OELWEIN        SUNNY     81  64  57 N9        30.03F
$$

...ELSEWHERE IN IOWA...


CITY           SKY/WX    TMP DP  RH WIND       PRES   REMARKS
DES MOINES     MOSUNNY   87  59  38 NE9G22    30.02F
IOWA CITY      MOSUNNY   82  63  52 N8        30.02F
FORT DODGE     SUNNY     82  64  54 NE5       30.06F
MARSHALLTOWN   SUNNY     84  65  52 N10       30.03S
CEDAR RAPIDS   MOSUNNY   83  66  56 N8        30.02S
$$

...NORTHERN ILLINOIS...


CITY           SKY/WX    TMP DP  RH WIND       PRES   REMARKS
CHICAGO-OHARE  CLOUDY    85  64  49 E10       29.97S
CHICAGO-MIDWAY PTSUNNY   84  62  47 E10       29.97F
MOLINE         SUNNY     86  63  45 N9        30.00S
ROCKFORD       MOSUNNY   85  64  49 NW6       30.00F
PEORIA         CLOUDY    84  70  62 VRB5      30.00S
$$

NOTE: "FAIR" INDICATES FEW OR NO CLOUDS BELOW 12,000 FEET WITH NO
SIGNIFICANT WEATHER AND/OR OBSTRUCTIONS TO VISIBILITY. WIND
SPEEDS ARE IN MILES-PER-HOUR.




USA.gov is the U.S. government's official web portal to all federal, state and local government web resources and services.